カタログに戻る

STARLINK-30214

運用中通信VLEO
NORAD 57411·PAYLOAD·🇺🇸 United States

打ち上げ Jul 20, 2023 から Vandenberg Space Force Base

Loading…

次のパス (今後24時間)

TLE

最新Source: CelesTrak SupGP

元期: Sep 15, 2026, 01:31 UTC

1 57411C 23102H   26258.06368056  .00010577  00000+0  38278-3 0  2581
2 57411  43.0023 258.9990 0001588 262.2668  92.9561 15.27599176    13

AllMySatでSTARLINK-30214をリアルタイム追跡

Download on the App Store